Content
SEND FEEDBACK

Daily
Averages
Monthly
Summary
United States of America

PACIFIC GROVE, CALIFORNIA


Home > North America > United States > California
Elevation: 331 feet     Latitude: 36 36N     Longitude: 121 55W

WEATHER
 
SELECT A DAY
Number of Records: 192,084;   Date Range: 7/1/96 - 8/28/14
 
SHARE

PRINT THIS DATA

[ ← Previous Day ]
WEATHER ALMANAC - JULY 18, 2013
[ Next Day → ]
[ °C ]   °F
Weather ElementAverageHighLow
Temperature56.8 °F62.6 °F (3:25 pm)53.6 °F (5:38 am)
Dewpoint53.1 °F54 °F (2:54 am)51.8 °F (8:20 am)
Humidity88 %100 % (5:38 am)72 % (1:54 pm)
Barometer30.07 in30.12 in (7:54 am)30.01 in (7:12 pm)
Wind Speed5.4 mph10.4 mph (2:54 pm)
Weather ElementAverage
Visibility5.4 mi
Wind DirectionSSW (207.7 °)

Weather ElementTotal
Precipitation---
Heating Degree Days6.9 (Base 65)
Growing Degree Days8.1 (Base 50)
Averaged from 43 records on July 18, 2013
WEATHER CONDITIONS BREAKOUT
WIND DIRECTION BREAKOUT
WEATHER BY HOUR - JULY 18, 2013
[ °C ]   °F
Local TimeTemperatureDewpointHumidityBarometerVisibilityWind DirectionWind SpeedGust SpeedPrecipitationEventsConditions
1:54 AM55.9 °F52.0 °F87 %30.11 in10.0 miWest (260°)4.6 mphOvercast
2:49 AM55.4 °F53.6 °F94 %30.06 in2.0 miCalmOvercast
2:54 AM55.0 °F54.0 °F96 %30.10 in4.0 miCalmOvercast
3:16 AM55.4 °F53.6 °F94 %30.06 in1.8 miWest (260°)6.9 mphOvercast
3:25 AM55.4 °F53.6 °F94 %30.05 in0.5 miWSW (250°)5.8 mphFogFog
3:37 AM55.4 °F53.6 °F94 %30.05 in0.8 miWSW (250°)5.8 mphMist
3:44 AM55.4 °F53.6 °F94 %30.06 in0.5 miSW (230°)5.8 mphFogFog
3:54 AM55.0 °F54.0 °F96 %30.09 in0.8 miWSW (250°)5.8 mphMist
4:54 AM55.0 °F54.0 °F96 %30.10 in0.8 miWest (260°)4.6 mphMist
5:38 AM53.6 °F53.6 °F100 %30.06 in1.2 miWest (260°)3.5 mphOvercast
5:54 AM54.0 °F54.0 °F100 %30.10 in1.5 miWSW (250°)5.8 mphFogFog
6:06 AM53.6 °F53.6 °F100 %30.07 in0.5 miWest (260°)3.5 mphFogFog
6:19 AM53.6 °F53.6 °F100 %30.07 in0.5 miWSW (250°)3.5 mphFogFog
6:54 AM54.0 °F52.0 °F93 %30.11 in0.5 miCalmFogFog
7:01 AM53.6 °F53.6 °F100 %30.07 in5.0 miCalmOvercast
7:08 AM53.6 °F53.6 °F100 %30.07 in0.8 miCalmOvercast
7:54 AM54.0 °F52.0 °F93 %30.12 in0.8 miCalmOvercast
8:20 AM53.6 °F51.8 °F94 %30.08 in2.0 miWSW (240°)3.5 mphOvercast
8:54 AM55.0 °F52.0 °F89 %30.12 in2.0 miWest (270°)3.5 mphOvercast
9:11 AM55.4 °F51.8 °F88 %30.08 in3.0 miCalmOvercast
9:37 AM55.4 °F53.6 °F94 %30.08 in3.0 miCalmOvercast
9:54 AM57.9 °F52.0 °F81 %30.12 in3.0 miNW (310°)3.5 mphHaze
10:12 AM59.0 °F53.6 °F82 %30.07 in10.0 miCalmScattered Clouds
10:54 AM60.1 °F53.1 °F78 %30.11 in10.0 miNW (310°)8.1 mphClear
11:16 AM60.8 °F53.6 °F77 %30.07 in10.0 miWNW (290°)6.9 mphPartly Cloudy
11:54 AM60.1 °F53.1 °F78 %30.11 in10.0 miWest (270°)8.1 mphScattered Clouds
12:01 PM59.0 °F53.6 °F82 %30.07 in10.0 miNW (310°)8.1 mphOvercast
12:54 PM60.1 °F53.1 °F78 %30.10 in10.0 miWest (280°)8.1 mphScattered Clouds
1:54 PM62.1 °F53.1 °F72 %30.10 in10.0 miWest (270°)9.2 mphScattered Clouds
2:54 PM62.1 °F53.1 °F72 %30.08 in10.0 miWNW (290°)10.4 mphClear
3:25 PM62.6 °F53.6 °F72 %30.04 in10.0 miWest (280°)8.1 mphPartly Cloudy
3:54 PM62.1 °F53.1 °F72 %30.07 in10.0 miWNW (300°)10.4 mphPartly Cloudy
4:54 PM62.1 °F54.0 °F75 %30.06 in10.0 miWest (280°)10.4 mphClear
5:32 PM60.8 °F53.6 °F77 %30.02 in10.0 miWest (270°)10.4 mphPartly Cloudy
5:50 PM59.0 °F53.6 °F82 %30.02 in10.0 miWest (280°)9.2 mphMostly Cloudy
5:54 PM59.0 °F53.1 °F81 %30.05 in10.0 miWest (280°)9.2 mphMostly Cloudy
6:54 PM57.0 °F53.1 °F87 %30.05 in6.0 miSW (230°)9.2 mphOvercast
7:12 PM57.2 °F53.6 °F88 %30.01 in8.0 miWest (260°)9.2 mphOvercast
7:54 PM55.9 °F53.1 °F90 %30.05 in3.0 miSW (230°)6.9 mphOvercast
8:54 PM55.0 °F52.0 °F89 %30.05 in6.0 miSSW (200°)6.9 mphOvercast
9:54 PM54.0 °F52.0 °F93 %30.06 in6.0 miSW (220°)4.6 mphOvercast
10:54 PM54.0 °F52.0 °F93 %30.05 in7.0 miSW (220°)6.9 mphOvercast
11:54 PM55.0 °F52.0 °F89 %30.04 in10.0 miWest (260°)4.6 mphOvercast
Hourly data recorded from KMRY, located miles away from Pacific Grove, California







STORIES FROM OUR PARTNERS